Location: ???? ?????????
(44.3677°N, 135.2344°E)
Time: 10:37:31
(UTC+00:00)

COSMOS 2428 - Pass Details

Date: 19 May 2025
Orbit: 845 x 853 km, 70.9° (Epoch: 13 June)

Event Time Altitude Azimuth Distance (km) Brightness Sun altitude
Rises 17:55:52 0° 319° (NW) 3,430 5.9 -13.7°
Reaches altitude 10° 17:59:08 10° 301° (WNW) 2,489 5.0 -13.3°
Maximum altitude 18:02:42 17° 261° (W) 2,016 4.2 -12.8°
Enters shadow 18:04:09 16° 243° (WSW) 2,098 4.2 -12.6°
